owner,sensor,date,latitude,longitude,air_pressure(mBar),qcFlag 
WAVCIS,ioos:station:WAVCIS:CSI16:1,2011-10-01T00:00:00Z,29.4012,-89.0355,1009.88,11111222 
WAVCIS,ioos:station:WAVCIS:CSI16:1,2011-10-01T01:00:00Z,29.4012,-89.0355,1010.35,11111222 
WAVCIS,ioos:station:WAVCIS:CSI16:1,2011-10-01T02:00:00Z,29.4012,-89.0355,1010.91,11111222 
WAVCIS,ioos:station:WAVCIS:CSI16:1,2011-10-01T03:00:00Z,29.4012,-89.0355,1011.37,11111222 
WAVCIS,ioos:station:WAVCIS:CSI16:1,2011-10-01T04:00:00Z,29.4012,-89.0355,1011.73,11111222 
WAVCIS,ioos:station:WAVCIS:CSI16:1,2011-10-01T05:00:00Z,29.4012,-89.0355,1011.7,11111222 
WAVCIS,ioos:station:WAVCIS:CSI16:1,2011-10-01T06:00:00Z,29.4012,-89.0355,1011.7,11111222 
WAVCIS,ioos:station:WAVCIS:CSI16:1,2011-10-01T07:00:00Z,29.4012,-89.0355,1011.45,11111222 
WAVCIS,ioos:station:WAVCIS:CSI16:1,2011-10-01T08:00:00Z,29.4012,-89.0355,1011.04,11111222 
WAVCIS,ioos:station:WAVCIS:CSI16:1,2011-10-01T09:00:00Z,29.4012,-89.0355,1010.87,11111222 
WAVCIS,ioos:station:WAVCIS:CSI16:1,2011-10-01T10:00:00Z,29.4012,-89.0355,1011.39,11111222 
WAVCIS,ioos:station:WAVCIS:CSI16:1,2011-10-01T11:00:00Z,29.4012,-89.0355,1012.02,11111222 
WAVCIS,ioos:station:WAVCIS:CSI16:1,2011-10-01T12:00:00Z,29.4012,-89.0355,1012.76,11111222 
WAVCIS,ioos:station:WAVCIS:CSI16:1,2011-10-01T13:00:00Z,29.4012,-89.0355,1013.45,11111222 
WAVCIS,ioos:station:WAVCIS:CSI16:1,2011-10-01T14:00:00Z,29.4012,-89.0355,1014.44,11111222 
WAVCIS,ioos:station:WAVCIS:CSI16:1,2011-10-01T15:00:00Z,29.4012,-89.0355,1015.32,11111222 
WAVCIS,ioos:station:WAVCIS:CSI16:1,2011-10-01T16:00:00Z,29.4012,-89.0355,1015.68,11111222 
WAVCIS,ioos:station:WAVCIS:CSI16:1,2011-10-01T17:00:00Z,29.4012,-89.0355,1015.55,11111222 
WAVCIS,ioos:station:WAVCIS:CSI16:1,2011-10-01T18:00:00Z,29.4012,-89.0355,1015.08,11111222 
WAVCIS,ioos:station:WAVCIS:CSI16:1,2011-10-01T19:00:00Z,29.4012,-89.0355,1014.39,11111222 
WAVCIS,ioos:station:WAVCIS:CSI16:1,2011-10-01T20:00:00Z,29.4012,-89.0355,1014.07,11111222 
WAVCIS,ioos:station:WAVCIS:CSI16:1,2011-10-01T21:00:00Z,29.4012,-89.0355,1013.9,11111222 
WAVCIS,ioos:station:WAVCIS:CSI16:1,2011-10-01T22:00:00Z,29.4012,-89.0355,1013.71,11111222 
WAVCIS,ioos:station:WAVCIS:CSI16:1,2011-10-01T23:00:00Z,29.4012,-89.0355,1014.03,11111222 
WAVCIS,ioos:station:WAVCIS:CSI16:1,2011-10-02T00:00:00Z,29.4012,-89.0355,1014.13,11111222 
WAVCIS,ioos:station:WAVCIS:CSI16:1,2011-10-02T01:00:00Z,29.4012,-89.0355,1014.48,11111222 
WAVCIS,ioos:station:WAVCIS:CSI16:1,2011-10-02T02:00:00Z,29.4012,-89.0355,1014.88,11111222 
WAVCIS,ioos:station:WAVCIS:CSI16:1,2011-10-02T03:00:00Z,29.4012,-89.0355,1014.81,11111222 
WAVCIS,ioos:station:WAVCIS:CSI16:1,2011-10-02T04:00:00Z,29.4012,-89.0355,1014.94,11111222 
WAVCIS,ioos:station:WAVCIS:CSI16:1,2011-10-02T05:00:00Z,29.4012,-89.0355,1014.88,11111222 
WAVCIS,ioos:station:WAVCIS:CSI16:1,2011-10-02T06:00:00Z,29.4012,-89.0355,1014.68,11111222 
WAVCIS,ioos:station:WAVCIS:CSI16:1,2011-10-02T07:00:00Z,29.4012,-89.0355,1014.54,11111222 
WAVCIS,ioos:station:WAVCIS:CSI16:1,2011-10-02T08:00:00Z,29.4012,-89.0355,1014.42,11111222 
WAVCIS,ioos:station:WAVCIS:CSI16:1,2011-10-02T09:00:00Z,29.4012,-89.0355,1014.27,11111222 
WAVCIS,ioos:station:WAVCIS:CSI16:1,2011-10-02T10:00:00Z,29.4012,-89.0355,1014.47,11111222 
WAVCIS,ioos:station:WAVCIS:CSI16:1,2011-10-02T11:00:00Z,29.4012,-89.0355,1014.83,11111222 
WAVCIS,ioos:station:WAVCIS:CSI16:1,2011-10-02T12:00:00Z,29.4012,-89.0355,1015.12,11111222 
WAVCIS,ioos:station:WAVCIS:CSI16:1,2011-10-02T13:00:00Z,29.4012,-89.0355,1015.62,11111222 
WAVCIS,ioos:station:WAVCIS:CSI16:1,2011-10-02T14:00:00Z,29.4012,-89.0355,1016.57,11111222 
WAVCIS,ioos:station:WAVCIS:CSI16:1,2011-10-02T15:00:00Z,29.4012,-89.0355,1017.21,11111222 
WAVCIS,ioos:station:WAVCIS:CSI16:1,2011-10-02T16:00:00Z,29.4012,-89.0355,1017.66,11111222 
WAVCIS,ioos:station:WAVCIS:CSI16:1,2011-10-02T17:00:00Z,29.4012,-89.0355,1017.38,11111222 
WAVCIS,ioos:station:WAVCIS:CSI16:1,2011-10-02T18:00:00Z,29.4012,-89.0355,1016.88,11111222 
WAVCIS,ioos:station:WAVCIS:CSI16:1,2011-10-02T19:00:00Z,29.4012,-89.0355,1016.33,11111222 
WAVCIS,ioos:station:WAVCIS:CSI16:1,2011-10-02T20:00:00Z,29.4012,-89.0355,1016.13,11111222 
WAVCIS,ioos:station:WAVCIS:CSI16:1,2011-10-02T21:00:00Z,29.4012,-89.0355,1015.78,11111222 
WAVCIS,ioos:station:WAVCIS:CSI16:1,2011-10-02T22:00:00Z,29.4012,-89.0355,1015.85,11111222 
WAVCIS,ioos:station:WAVCIS:CSI16:1,2011-10-02T23:00:00Z,29.4012,-89.0355,1016.0,11111222 
WAVCIS,ioos:station:WAVCIS:CSI16:1,2011-10-03T00:00:00Z,29.4012,-89.0355,1015.89,11111222 
WAVCIS,ioos:station:WAVCIS:CSI16:1,2011-10-03T01:00:00Z,29.4012,-89.0355,1015.97,11111222 
WAVCIS,ioos:station:WAVCIS:CSI16:1,2011-10-03T02:00:00Z,29.4012,-89.0355,1016.17,11111222 
WAVCIS,ioos:station:WAVCIS:CSI16:1,2011-10-03T03:00:00Z,29.4012,-89.0355,1016.34,11111222 
WAVCIS,ioos:station:WAVCIS:CSI16:1,2011-10-03T04:00:00Z,29.4012,-89.0355,1016.34,11111222 
WAVCIS,ioos:station:WAVCIS:CSI16:1,2011-10-03T05:00:00Z,29.4012,-89.0355,1015.91,11111222 
WAVCIS,ioos:station:WAVCIS:CSI16:1,2011-10-03T06:00:00Z,29.4012,-89.0355,1015.85,11111222 
WAVCIS,ioos:station:WAVCIS:CSI16:1,2011-10-03T07:00:00Z,29.4012,-89.0355,1015.95,11111222 
WAVCIS,ioos:station:WAVCIS:CSI16:1,2011-10-03T08:00:00Z,29.4012,-89.0355,1015.67,11111222 
WAVCIS,ioos:station:WAVCIS:CSI16:1,2011-10-03T09:00:00Z,29.4012,-89.0355,1015.94,11111222 
WAVCIS,ioos:station:WAVCIS:CSI16:1,2011-10-03T10:00:00Z,29.4012,-89.0355,1016.29,11111222 
WAVCIS,ioos:station:WAVCIS:CSI16:1,2011-10-03T11:00:00Z,29.4012,-89.0355,1016.58,11111222 
WAVCIS,ioos:station:WAVCIS:CSI16:1,2011-10-03T12:00:00Z,29.4012,-89.0355,1017.03,11111222 
WAVCIS,ioos:station:WAVCIS:CSI16:1,2011-10-03T13:00:00Z,29.4012,-89.0355,1017.56,11111222 
WAVCIS,ioos:station:WAVCIS:CSI16:1,2011-10-03T14:00:00Z,29.4012,-89.0355,1018.53,11111222 
WAVCIS,ioos:station:WAVCIS:CSI16:1,2011-10-03T15:00:00Z,29.4012,-89.0355,1019.1,11111222 
WAVCIS,ioos:station:WAVCIS:CSI16:1,2011-10-03T16:00:00Z,29.4012,-89.0355,1019.56,11111222 
WAVCIS,ioos:station:WAVCIS:CSI16:1,2011-10-03T17:00:00Z,29.4012,-89.0355,1019.51,11111222 
WAVCIS,ioos:station:WAVCIS:CSI16:1,2011-10-03T18:00:00Z,29.4012,-89.0355,1018.98,11111222 
WAVCIS,ioos:station:WAVCIS:CSI16:1,2011-10-03T19:00:00Z,29.4012,-89.0355,1018.38,11111222 
WAVCIS,ioos:station:WAVCIS:CSI16:1,2011-10-03T20:00:00Z,29.4012,-89.0355,1017.83,11111222 
WAVCIS,ioos:station:WAVCIS:CSI16:1,2011-10-03T21:00:00Z,29.4012,-89.0355,1017.23,11111222 
WAVCIS,ioos:station:WAVCIS:CSI16:1,2011-10-03T22:00:00Z,29.4012,-89.0355,1017.14,11111222 
WAVCIS,ioos:station:WAVCIS:CSI16:1,2011-10-03T23:00:00Z,29.4012,-89.0355,1017.48,11111222 
WAVCIS,ioos:station:WAVCIS:CSI16:1,2011-10-04T00:00:00Z,29.4012,-89.0355,1017.36,11111222 
WAVCIS,ioos:station:WAVCIS:CSI16:1,2011-10-04T01:00:00Z,29.4012,-89.0355,1017.43,11111222 
WAVCIS,ioos:station:WAVCIS:CSI16:1,2011-10-04T02:00:00Z,29.4012,-89.0355,1017.79,11111222 
WAVCIS,ioos:station:WAVCIS:CSI16:1,2011-10-04T03:00:00Z,29.4012,-89.0355,1017.96,11111222 
WAVCIS,ioos:station:WAVCIS:CSI16:1,2011-10-04T04:00:00Z,29.4012,-89.0355,1018.05,11111222 
WAVCIS,ioos:station:WAVCIS:CSI16:1,2011-10-04T05:00:00Z,29.4012,-89.0355,1017.74,11111222 
WAVCIS,ioos:station:WAVCIS:CSI16:1,2011-10-04T06:00:00Z,29.4012,-89.0355,1017.41,11111222 
WAVCIS,ioos:station:WAVCIS:CSI16:1,2011-10-04T07:00:00Z,29.4012,-89.0355,1017.26,11111222 
WAVCIS,ioos:station:WAVCIS:CSI16:1,2011-10-04T08:00:00Z,29.4012,-89.0355,1017.26,11111222 
WAVCIS,ioos:station:WAVCIS:CSI16:1,2011-10-04T09:00:00Z,29.4012,-89.0355,1017.18,11111222 
WAVCIS,ioos:station:WAVCIS:CSI16:1,2011-10-04T10:00:00Z,29.4012,-89.0355,1017.23,11111222 
WAVCIS,ioos:station:WAVCIS:CSI16:1,2011-10-04T11:00:00Z,29.4012,-89.0355,1017.73,11111222 
WAVCIS,ioos:station:WAVCIS:CSI16:1,2011-10-04T12:00:00Z,29.4012,-89.0355,1018.28,11111222 
WAVCIS,ioos:station:WAVCIS:CSI16:1,2011-10-04T13:00:00Z,29.4012,-89.0355,1018.96,11111222 
WAVCIS,ioos:station:WAVCIS:CSI16:1,2011-10-04T14:00:00Z,29.4012,-89.0355,1019.61,11111222 
WAVCIS,ioos:station:WAVCIS:CSI16:1,2011-10-04T15:00:00Z,29.4012,-89.0355,1020.07,11111222 
WAVCIS,ioos:station:WAVCIS:CSI16:1,2011-10-04T16:00:00Z,29.4012,-89.0355,1020.4,11111222 
WAVCIS,ioos:station:WAVCIS:CSI16:1,2011-10-04T17:00:00Z,29.4012,-89.0355,1020.01,11111222 
WAVCIS,ioos:station:WAVCIS:CSI16:1,2011-10-04T18:00:00Z,29.4012,-89.0355,1019.29,11111222 
WAVCIS,ioos:station:WAVCIS:CSI16:1,2011-10-04T19:00:00Z,29.4012,-89.0355,1018.53,11111222 
WAVCIS,ioos:station:WAVCIS:CSI16:1,2011-10-04T20:00:00Z,29.4012,-89.0355,1017.75,11111222 
WAVCIS,ioos:station:WAVCIS:CSI16:1,2011-10-04T21:00:00Z,29.4012,-89.0355,1017.32,11111222 
WAVCIS,ioos:station:WAVCIS:CSI16:1,2011-10-04T22:00:00Z,29.4012,-89.0355,1017.3,11111222 
WAVCIS,ioos:station:WAVCIS:CSI16:1,2011-10-04T23:00:00Z,29.4012,-89.0355,1017.34,11111222 
WAVCIS,ioos:station:WAVCIS:CSI16:1,2011-10-05T00:00:00Z,29.4012,-89.0355,1017.4,11111222 
WAVCIS,ioos:station:WAVCIS:CSI16:1,2011-10-05T01:00:00Z,29.4012,-89.0355,1017.57,11111222 
WAVCIS,ioos:station:WAVCIS:CSI16:1,2011-10-05T02:00:00Z,29.4012,-89.0355,1017.8,11111222 
WAVCIS,ioos:station:WAVCIS:CSI16:1,2011-10-05T03:00:00Z,29.4012,-89.0355,1017.8,11111222 
WAVCIS,ioos:station:WAVCIS:CSI16:1,2011-10-05T04:00:00Z,29.4012,-89.0355,1017.78,11111222 
WAVCIS,ioos:station:WAVCIS:CSI16:1,2011-10-05T05:00:00Z,29.4012,-89.0355,1017.58,11111222 
WAVCIS,ioos:station:WAVCIS:CSI16:1,2011-10-05T06:00:00Z,29.4012,-89.0355,1017.21,11111222 
WAVCIS,ioos:station:WAVCIS:CSI16:1,2011-10-05T07:00:00Z,29.4012,-89.0355,1016.82,11111222 
WAVCIS,ioos:station:WAVCIS:CSI16:1,2011-10-05T08:00:00Z,29.4012,-89.0355,1016.34,11111222 
WAVCIS,ioos:station:WAVCIS:CSI16:1,2011-10-05T09:00:00Z,29.4012,-89.0355,1015.99,11111222 
WAVCIS,ioos:station:WAVCIS:CSI16:1,2011-10-05T10:00:00Z,29.4012,-89.0355,1015.94,11111222 
WAVCIS,ioos:station:WAVCIS:CSI16:1,2011-10-05T11:00:00Z,29.4012,-89.0355,1016.35,11111222 
WAVCIS,ioos:station:WAVCIS:CSI16:1,2011-10-05T12:00:00Z,29.4012,-89.0355,1016.65,11111222 
WAVCIS,ioos:station:WAVCIS:CSI16:1,2011-10-05T13:00:00Z,29.4012,-89.0355,1017.21,11111222 
WAVCIS,ioos:station:WAVCIS:CSI16:1,2011-10-05T14:00:00Z,29.4012,-89.0355,1017.86,11111222 
WAVCIS,ioos:station:WAVCIS:CSI16:1,2011-10-05T15:00:00Z,29.4012,-89.0355,1018.36,11111222 
WAVCIS,ioos:station:WAVCIS:CSI16:1,2011-10-05T16:00:00Z,29.4012,-89.0355,1018.42,11111222 
WAVCIS,ioos:station:WAVCIS:CSI16:1,2011-10-05T17:00:00Z,29.4012,-89.0355,1018.08,11111222 
WAVCIS,ioos:station:WAVCIS:CSI16:1,2011-10-05T18:00:00Z,29.4012,-89.0355,1017.4,11111222 
WAVCIS,ioos:station:WAVCIS:CSI16:1,2011-10-05T19:00:00Z,29.4012,-89.0355,1016.68,11111222 
WAVCIS,ioos:station:WAVCIS:CSI16:1,2011-10-05T20:00:00Z,29.4012,-89.0355,1016.08,11111222 
WAVCIS,ioos:station:WAVCIS:CSI16:1,2011-10-05T21:00:00Z,29.4012,-89.0355,1015.41,11111222 
WAVCIS,ioos:station:WAVCIS:CSI16:1,2011-10-05T22:00:00Z,29.4012,-89.0355,1015.32,11111222 
WAVCIS,ioos:station:WAVCIS:CSI16:1,2011-10-05T23:00:00Z,29.4012,-89.0355,1015.38,11111222 
WAVCIS,ioos:station:WAVCIS:CSI16:1,2011-10-06T00:00:00Z,29.4012,-89.0355,1015.54,11111222 
WAVCIS,ioos:station:WAVCIS:CSI16:1,2011-10-06T01:00:00Z,29.4012,-89.0355,1015.87,11111222 
WAVCIS,ioos:station:WAVCIS:CSI16:1,2011-10-06T02:00:00Z,29.4012,-89.0355,1016.16,11111222 
WAVCIS,ioos:station:WAVCIS:CSI16:1,2011-10-06T03:00:00Z,29.4012,-89.0355,1016.34,11111222 
WAVCIS,ioos:station:WAVCIS:CSI16:1,2011-10-06T04:00:00Z,29.4012,-89.0355,1016.19,11111222 
WAVCIS,ioos:station:WAVCIS:CSI16:1,2011-10-06T05:00:00Z,29.4012,-89.0355,1015.91,11111222 
WAVCIS,ioos:station:WAVCIS:CSI16:1,2011-10-06T06:00:00Z,29.4012,-89.0355,1015.52,11111222 
WAVCIS,ioos:station:WAVCIS:CSI16:1,2011-10-06T07:00:00Z,29.4012,-89.0355,1015.29,11111222 
WAVCIS,ioos:station:WAVCIS:CSI16:1,2011-10-06T08:00:00Z,29.4012,-89.0355,1015.23,11111222 
WAVCIS,ioos:station:WAVCIS:CSI16:1,2011-10-06T09:00:00Z,29.4012,-89.0355,1014.95,11111222 
WAVCIS,ioos:station:WAVCIS:CSI16:1,2011-10-06T10:00:00Z,29.4012,-89.0355,1014.85,11111222 
WAVCIS,ioos:station:WAVCIS:CSI16:1,2011-10-06T11:00:00Z,29.4012,-89.0355,1015.38,11111222 
WAVCIS,ioos:station:WAVCIS:CSI16:1,2011-10-06T12:00:00Z,29.4012,-89.0355,1015.8,11111222 
WAVCIS,ioos:station:WAVCIS:CSI16:1,2011-10-06T13:00:00Z,29.4012,-89.0355,1016.07,11111222 
WAVCIS,ioos:station:WAVCIS:CSI16:1,2011-10-06T14:00:00Z,29.4012,-89.0355,1016.61,11111222 
WAVCIS,ioos:station:WAVCIS:CSI16:1,2011-10-06T15:00:00Z,29.4012,-89.0355,1016.28,11111222 
WAVCIS,ioos:station:WAVCIS:CSI16:1,2011-10-06T16:00:00Z,29.4012,-89.0355,1016.33,11111222 
WAVCIS,ioos:station:WAVCIS:CSI16:1,2011-10-06T17:00:00Z,29.4012,-89.0355,1015.92,11111222 
WAVCIS,ioos:station:WAVCIS:CSI16:1,2011-10-06T18:00:00Z,29.4012,-89.0355,1015.89,11111222 
WAVCIS,ioos:station:WAVCIS:CSI16:1,2011-10-06T19:00:00Z,29.4012,-89.0355,1015.65,11111222 
WAVCIS,ioos:station:WAVCIS:CSI16:1,2011-10-06T20:00:00Z,29.4012,-89.0355,1015.42,11111222 
WAVCIS,ioos:station:WAVCIS:CSI16:1,2011-10-06T21:00:00Z,29.4012,-89.0355,1015.5,11111222 
WAVCIS,ioos:station:WAVCIS:CSI16:1,2011-10-06T22:00:00Z,29.4012,-89.0355,1015.46,11111222 
WAVCIS,ioos:station:WAVCIS:CSI16:1,2011-10-06T23:00:00Z,29.4012,-89.0355,1015.75,11111222 
WAVCIS,ioos:station:WAVCIS:CSI16:1,2011-10-07T00:00:00Z,29.4012,-89.0355,1015.93,11111222 
WAVCIS,ioos:station:WAVCIS:CSI16:1,2011-10-07T01:00:00Z,29.4012,-89.0355,1016.16,11111222 
WAVCIS,ioos:station:WAVCIS:CSI16:1,2011-10-07T02:00:00Z,29.4012,-89.0355,1016.52,11111222 
WAVCIS,ioos:station:WAVCIS:CSI16:1,2011-10-07T03:00:00Z,29.4012,-89.0355,1016.92,11111222 
WAVCIS,ioos:station:WAVCIS:CSI16:1,2011-10-07T04:00:00Z,29.4012,-89.0355,1016.82,11111222 
WAVCIS,ioos:station:WAVCIS:CSI16:1,2011-10-07T05:00:00Z,29.4012,-89.0355,1016.46,11111222 
WAVCIS,ioos:station:WAVCIS:CSI16:1,2011-10-07T06:00:00Z,29.4012,-89.0355,1016.12,11111222 
WAVCIS,ioos:station:WAVCIS:CSI16:1,2011-10-07T07:00:00Z,29.4012,-89.0355,1015.89,11111222 
WAVCIS,ioos:station:WAVCIS:CSI16:1,2011-10-07T08:00:00Z,29.4012,-89.0355,1015.8,11111222 
WAVCIS,ioos:station:WAVCIS:CSI16:1,2011-10-07T09:00:00Z,29.4012,-89.0355,1015.61,11111222 
WAVCIS,ioos:station:WAVCIS:CSI16:1,2011-10-07T10:00:00Z,29.4012,-89.0355,1015.62,11111222 
WAVCIS,ioos:station:WAVCIS:CSI16:1,2011-10-07T11:00:00Z,29.4012,-89.0355,1015.9,11111222 
WAVCIS,ioos:station:WAVCIS:CSI16:1,2011-10-07T12:00:00Z,29.4012,-89.0355,1016.44,11111222 
WAVCIS,ioos:station:WAVCIS:CSI16:1,2011-10-07T13:00:00Z,29.4012,-89.0355,1016.87,11111222 
WAVCIS,ioos:station:WAVCIS:CSI16:1,2011-10-07T14:00:00Z,29.4012,-89.0355,1017.57,11111222 
WAVCIS,ioos:station:WAVCIS:CSI16:1,2011-10-07T15:00:00Z,29.4012,-89.0355,1018.3,11111222 
WAVCIS,ioos:station:WAVCIS:CSI16:1,2011-10-07T16:00:00Z,29.4012,-89.0355,1018.41,11111222 
WAVCIS,ioos:station:WAVCIS:CSI16:1,2011-10-07T17:00:00Z,29.4012,-89.0355,1018.28,11111222 
WAVCIS,ioos:station:WAVCIS:CSI16:1,2011-10-07T18:00:00Z,29.4012,-89.0355,1017.47,11111222 
WAVCIS,ioos:station:WAVCIS:CSI16:1,2011-10-07T19:00:00Z,29.4012,-89.0355,1017.08,11111222 
WAVCIS,ioos:station:WAVCIS:CSI16:1,2011-10-07T20:00:00Z,29.4012,-89.0355,1016.48,11111222 
WAVCIS,ioos:station:WAVCIS:CSI16:1,2011-10-07T21:00:00Z,29.4012,-89.0355,1016.35,11111222 
WAVCIS,ioos:station:WAVCIS:CSI16:1,2011-10-07T22:00:00Z,29.4012,-89.0355,1016.35,11111222 
WAVCIS,ioos:station:WAVCIS:CSI16:1,2011-10-07T23:00:00Z,29.4012,-89.0355,1016.43,11111222 
WAVCIS,ioos:station:WAVCIS:CSI16:1,2011-10-08T00:00:00Z,29.4012,-89.0355,1016.48,11111222 
WAVCIS,ioos:station:WAVCIS:CSI16:1,2011-10-08T01:00:00Z,29.4012,-89.0355,1016.81,11111222 
WAVCIS,ioos:station:WAVCIS:CSI16:1,2011-10-08T02:00:00Z,29.4012,-89.0355,1017.18,11111222 
WAVCIS,ioos:station:WAVCIS:CSI16:1,2011-10-08T03:00:00Z,29.4012,-89.0355,1017.18,11111222 
WAVCIS,ioos:station:WAVCIS:CSI16:1,2011-10-08T04:00:00Z,29.4012,-89.0355,1017.23,11111222 
WAVCIS,ioos:station:WAVCIS:CSI16:1,2011-10-08T05:00:00Z,29.4012,-89.0355,1016.83,11111222 
WAVCIS,ioos:station:WAVCIS:CSI16:1,2011-10-08T06:00:00Z,29.4012,-89.0355,1016.27,11111222 
WAVCIS,ioos:station:WAVCIS:CSI16:1,2011-10-08T07:00:00Z,29.4012,-89.0355,1015.88,11111222 
WAVCIS,ioos:station:WAVCIS:CSI16:1,2011-10-08T08:00:00Z,29.4012,-89.0355,1015.63,11111222 
WAVCIS,ioos:station:WAVCIS:CSI16:1,2011-10-08T09:00:00Z,29.4012,-89.0355,1015.39,11111222 
WAVCIS,ioos:station:WAVCIS:CSI16:1,2011-10-08T10:00:00Z,29.4012,-89.0355,1015.67,11111222 
WAVCIS,ioos:station:WAVCIS:CSI16:1,2011-10-08T11:00:00Z,29.4012,-89.0355,1016.01,11111222 
WAVCIS,ioos:station:WAVCIS:CSI16:1,2011-10-08T12:00:00Z,29.4012,-89.0355,1016.3,11111222 
WAVCIS,ioos:station:WAVCIS:CSI16:1,2011-10-08T13:00:00Z,29.4012,-89.0355,1016.53,11111222 
WAVCIS,ioos:station:WAVCIS:CSI16:1,2011-10-08T14:00:00Z,29.4012,-89.0355,1016.97,11111222 
WAVCIS,ioos:station:WAVCIS:CSI16:1,2011-10-08T15:00:00Z,29.4012,-89.0355,1017.28,11111222 
WAVCIS,ioos:station:WAVCIS:CSI16:1,2011-10-08T16:00:00Z,29.4012,-89.0355,1017.43,11111222 
WAVCIS,ioos:station:WAVCIS:CSI16:1,2011-10-08T17:00:00Z,29.4012,-89.0355,1017.03,11111222 
WAVCIS,ioos:station:WAVCIS:CSI16:1,2011-10-08T18:00:00Z,29.4012,-89.0355,1016.38,11111222 
WAVCIS,ioos:station:WAVCIS:CSI16:1,2011-10-08T19:00:00Z,29.4012,-89.0355,1015.62,11111222 
WAVCIS,ioos:station:WAVCIS:CSI16:1,2011-10-08T20:00:00Z,29.4012,-89.0355,1015.08,11111222 
WAVCIS,ioos:station:WAVCIS:CSI16:1,2011-10-08T21:00:00Z,29.4012,-89.0355,1014.86,11111222 
WAVCIS,ioos:station:WAVCIS:CSI16:1,2011-10-08T22:00:00Z,29.4012,-89.0355,1014.59,11111222 
WAVCIS,ioos:station:WAVCIS:CSI16:1,2011-10-08T23:00:00Z,29.4012,-89.0355,1014.48,11111222 
WAVCIS,ioos:station:WAVCIS:CSI16:1,2011-10-09T00:00:00Z,29.4012,-89.0355,1014.46,11111222 
WAVCIS,ioos:station:WAVCIS:CSI16:1,2011-10-09T01:00:00Z,29.4012,-89.0355,1014.67,11111222 
WAVCIS,ioos:station:WAVCIS:CSI16:1,2011-10-09T02:00:00Z,29.4012,-89.0355,1014.93,11111222 
WAVCIS,ioos:station:WAVCIS:CSI16:1,2011-10-09T03:00:00Z,29.4012,-89.0355,1015.16,11111222 
WAVCIS,ioos:station:WAVCIS:CSI16:1,2011-10-09T04:00:00Z,29.4012,-89.0355,1014.71,11111222 
WAVCIS,ioos:station:WAVCIS:CSI16:1,2011-10-09T05:00:00Z,29.4012,-89.0355,1014.28,11111222 
WAVCIS,ioos:station:WAVCIS:CSI16:1,2011-10-09T06:00:00Z,29.4012,-89.0355,1013.96,11111222 
WAVCIS,ioos:station:WAVCIS:CSI16:1,2011-10-09T07:00:00Z,29.4012,-89.0355,1013.4,11111222 
WAVCIS,ioos:station:WAVCIS:CSI16:1,2011-10-09T08:00:00Z,29.4012,-89.0355,1012.91,11111222 
WAVCIS,ioos:station:WAVCIS:CSI16:1,2011-10-09T09:00:00Z,29.4012,-89.0355,1012.66,11111222 
WAVCIS,ioos:station:WAVCIS:CSI16:1,2011-10-09T10:00:00Z,29.4012,-89.0355,1012.37,11111222 
WAVCIS,ioos:station:WAVCIS:CSI16:1,2011-10-09T11:00:00Z,29.4012,-89.0355,1012.73,11111222 
WAVCIS,ioos:station:WAVCIS:CSI16:1,2011-10-09T12:00:00Z,29.4012,-89.0355,1012.67,11111222 
WAVCIS,ioos:station:WAVCIS:CSI16:1,2011-10-09T13:00:00Z,29.4012,-89.0355,1012.72,11111222 
WAVCIS,ioos:station:WAVCIS:CSI16:1,2011-10-09T14:00:00Z,29.4012,-89.0355,1013.2,11111222 
WAVCIS,ioos:station:WAVCIS:CSI16:1,2011-10-09T15:00:00Z,29.4012,-89.0355,1013.56,11111222 
WAVCIS,ioos:station:WAVCIS:CSI16:1,2011-10-09T16:00:00Z,29.4012,-89.0355,1013.67,11111222 
WAVCIS,ioos:station:WAVCIS:CSI16:1,2011-10-09T17:00:00Z,29.4012,-89.0355,1013.15,11111222 
WAVCIS,ioos:station:WAVCIS:CSI16:1,2011-10-09T18:00:00Z,29.4012,-89.0355,1012.52,11111222 
WAVCIS,ioos:station:WAVCIS:CSI16:1,2011-10-09T19:00:00Z,29.4012,-89.0355,1011.78,11111222 
WAVCIS,ioos:station:WAVCIS:CSI16:1,2011-10-09T20:00:00Z,29.4012,-89.0355,1011.2,11111222 
WAVCIS,ioos:station:WAVCIS:CSI16:1,2011-10-09T21:00:00Z,29.4012,-89.0355,1010.63,11111222 
WAVCIS,ioos:station:WAVCIS:CSI16:1,2011-10-09T22:00:00Z,29.4012,-89.0355,1010.42,11111222 
WAVCIS,ioos:station:WAVCIS:CSI16:1,2011-10-09T23:00:00Z,29.4012,-89.0355,1010.48,11111222 
WAVCIS,ioos:station:WAVCIS:CSI16:1,2011-10-10T00:00:00Z,29.4012,-89.0355,1010.59,11111222 
WAVCIS,ioos:station:WAVCIS:CSI16:1,2011-10-10T01:00:00Z,29.4012,-89.0355,1010.77,11111222 
WAVCIS,ioos:station:WAVCIS:CSI16:1,2011-10-10T02:00:00Z,29.4012,-89.0355,1011.08,11111222 
WAVCIS,ioos:station:WAVCIS:CSI16:1,2011-10-10T03:00:00Z,29.4012,-89.0355,1011.14,11111222 
WAVCIS,ioos:station:WAVCIS:CSI16:1,2011-10-10T04:00:00Z,29.4012,-89.0355,1010.83,11111222 
WAVCIS,ioos:station:WAVCIS:CSI16:1,2011-10-10T05:00:00Z,29.4012,-89.0355,1010.23,11111222 
WAVCIS,ioos:station:WAVCIS:CSI16:1,2011-10-10T06:00:00Z,29.4012,-89.0355,1010.02,11111222 
WAVCIS,ioos:station:WAVCIS:CSI16:1,2011-10-10T07:00:00Z,29.4012,-89.0355,1009.98,11111222 
WAVCIS,ioos:station:WAVCIS:CSI16:1,2011-10-10T08:00:00Z,29.4012,-89.0355,1009.7,11111222 
WAVCIS,ioos:station:WAVCIS:CSI16:1,2011-10-10T09:00:00Z,29.4012,-89.0355,1009.07,11111222 
WAVCIS,ioos:station:WAVCIS:CSI16:1,2011-10-10T10:00:00Z,29.4012,-89.0355,1008.86,11111222 
WAVCIS,ioos:station:WAVCIS:CSI16:1,2011-10-10T11:00:00Z,29.4012,-89.0355,1008.76,11111222 
WAVCIS,ioos:station:WAVCIS:CSI16:1,2011-10-10T12:00:00Z,29.4012,-89.0355,1008.93,11111222 
WAVCIS,ioos:station:WAVCIS:CSI16:1,2011-10-10T13:00:00Z,29.4012,-89.0355,1009.66,11111222 
WAVCIS,ioos:station:WAVCIS:CSI16:1,2011-10-10T14:00:00Z,29.4012,-89.0355,1010.2,11111222 
WAVCIS,ioos:station:WAVCIS:CSI16:1,2011-10-10T15:00:00Z,29.4012,-89.0355,1010.55,11111222 
WAVCIS,ioos:station:WAVCIS:CSI16:1,2011-10-10T16:00:00Z,29.4012,-89.0355,1010.82,11111222 
WAVCIS,ioos:station:WAVCIS:CSI16:1,2011-10-10T17:00:00Z,29.4012,-89.0355,1010.58,11111222 
WAVCIS,ioos:station:WAVCIS:CSI16:1,2011-10-10T18:00:00Z,29.4012,-89.0355,1009.51,11111222 
WAVCIS,ioos:station:WAVCIS:CSI16:1,2011-10-10T19:00:00Z,29.4012,-89.0355,1009.02,11111222 
WAVCIS,ioos:station:WAVCIS:CSI16:1,2011-10-10T20:00:00Z,29.4012,-89.0355,1008.15,11111222 
WAVCIS,ioos:station:WAVCIS:CSI16:1,2011-10-10T21:00:00Z,29.4012,-89.0355,1008.07,11111222 
WAVCIS,ioos:station:WAVCIS:CSI16:1,2011-10-10T22:00:00Z,29.4012,-89.0355,1007.98,11111222 
WAVCIS,ioos:station:WAVCIS:CSI16:1,2011-10-10T23:00:00Z,29.4012,-89.0355,1007.71,11111222 
WAVCIS,ioos:station:WAVCIS:CSI16:1,2011-10-11T00:00:00Z,29.4012,-89.0355,1007.75,11111222 
WAVCIS,ioos:station:WAVCIS:CSI16:1,2011-10-11T01:00:00Z,29.4012,-89.0355,1007.74,11111222 
WAVCIS,ioos:station:WAVCIS:CSI16:1,2011-10-11T02:00:00Z,29.4012,-89.0355,1007.77,11111222 
WAVCIS,ioos:station:WAVCIS:CSI16:1,2011-10-11T03:00:00Z,29.4012,-89.0355,1007.73,11111222 
WAVCIS,ioos:station:WAVCIS:CSI16:1,2011-10-11T04:00:00Z,29.4012,-89.0355,1007.43,11111222 
WAVCIS,ioos:station:WAVCIS:CSI16:1,2011-10-11T05:00:00Z,29.4012,-89.0355,1006.978,11111222 
WAVCIS,ioos:station:WAVCIS:CSI16:1,2011-10-11T06:00:00Z,29.4012,-89.0355,1006.702,11111222 
WAVCIS,ioos:station:WAVCIS:CSI16:1,2011-10-11T07:00:00Z,29.4012,-89.0355,1006.325,11111222 
WAVCIS,ioos:station:WAVCIS:CSI16:1,2011-10-11T08:00:00Z,29.4012,-89.0355,1006.054,11111222 
WAVCIS,ioos:station:WAVCIS:CSI16:1,2011-10-11T09:00:00Z,29.4012,-89.0355,1006.029,11111222 
WAVCIS,ioos:station:WAVCIS:CSI16:1,2011-10-11T10:00:00Z,29.4012,-89.0355,1006.381,11111222 
WAVCIS,ioos:station:WAVCIS:CSI16:1,2011-10-11T11:00:00Z,29.4012,-89.0355,1006.673,11111222 
WAVCIS,ioos:station:WAVCIS:CSI16:1,2011-10-11T12:00:00Z,29.4012,-89.0355,1006.955,11111222 
WAVCIS,ioos:station:WAVCIS:CSI16:1,2011-10-11T13:00:00Z,29.4012,-89.0355,1007.32,11111222 
WAVCIS,ioos:station:WAVCIS:CSI16:1,2011-10-11T14:00:00Z,29.4012,-89.0355,1007.86,11111222 
WAVCIS,ioos:station:WAVCIS:CSI16:1,2011-10-11T15:00:00Z,29.4012,-89.0355,1007.84,11111222 
WAVCIS,ioos:station:WAVCIS:CSI16:1,2011-10-11T16:00:00Z,29.4012,-89.0355,1007.93,11111222 
WAVCIS,ioos:station:WAVCIS:CSI16:1,2011-10-11T17:00:00Z,29.4012,-89.0355,1007.85,11111222 
WAVCIS,ioos:station:WAVCIS:CSI16:1,2011-10-11T18:00:00Z,29.4012,-89.0355,1007.32,11111222 
WAVCIS,ioos:station:WAVCIS:CSI16:1,2011-10-11T19:00:00Z,29.4012,-89.0355,1006.748,11111222 
WAVCIS,ioos:station:WAVCIS:CSI16:1,2011-10-11T20:00:00Z,29.4012,-89.0355,1006.28,11111222 
WAVCIS,ioos:station:WAVCIS:CSI16:1,2011-10-11T21:00:00Z,29.4012,-89.0355,1005.963,11111222 
WAVCIS,ioos:station:WAVCIS:CSI16:1,2011-10-11T22:00:00Z,29.4012,-89.0355,1006.153,11111222 